#timestamp,LO_Frequency,Hit,StdDev 
1674108015.2,286046999.9,N
1674108035.1,286047000.8,N
1674108036.0,286047000.8,N
1674108055.8,286046999.8,N
1674108075.6,286047002.8,N
1674108095.5,286047004.2,N
1674108115.3,286047000.5,N
1674108135.2,286047002.5,N
1674108155.9,286047002.2,N
1674108175.7,286047002.2,N
1674108195.6,286047000.8,N
1674108215.4,286046999.9,N
1674108235.2,286047001.8,N
1674108255.1,286047002.2,N
1674108256.0,286047002.2,N
1674108275.8,286047000.3,N
1674108295.7,286047002.3,N
1674108315.5,286046998.7,N
1674108335.3,286046999.3,N
1674108355.2,286047002.2,N
1674108375.0,286047002.3,N
1674108375.9,286047002.3,N
1674108395.8,286046998.7,N
1674108415.6,286046999.0,N
1674108435.4,286046998.4,N
1674108455.3,286047000.3,N
1674108475.1,286046998.5,N
1674108495.8,286047000.0,N
1674108515.7,286047002.7,N
1674108535.5,286047001.5,N
1674108555.4,286047005.5,Y
1674108575.2,286047002.1,P
1674108595.0,286047001.5,N
1674108595.9,286047001.5,P
1674108615.8,286047002.2,Y
1674108635.6,286046998.4,P
1674108655.4,286046997.5,N
1674108675.3,286046993.8,P
1674108695.1,286046996.1,N
1674108715.9,286046998.0,N
1674108735.7,286046998.0,N
1674108755.5,286046995.1,N
1674108775.4,286046996.0,N
1674108795.2,286046996.1,N
1674108815.0,286046995.7,N
1674108816.0,286046995.7,N
1674108835.8,286046995.9,N
1674108855.6,286046995.6,N
1674108875.5,286046995.2,N
1674108895.3,286046996.2,N
1674108915.1,286046997.0,N
1674108935.9,286046996.4,N
1674108955.7,286046992.9,Y
1674108975.5,286046998.4,P
1674108995.4,286046996.9,P
1674109015.2,286046998.5,N
1674109035.1,286047002.3,N
1674109036.0,286047002.3,N
1674109055.8,286047004.1,N
1674109075.7,286047001.4,N
1674109095.5,286047000.2,N
1674109115.3,286047000.2,N
1674109135.2,286047000.3,N
1674109155.0,286046998.5,N
1674109155.9,286046998.5,N
1674109175.7,286047000.3,N
1674109195.6,286046999.7,N
1674109215.4,286047002.6,N
1674109235.3,286047000.8,N
1674109255.1,286046999.0,N
1674109256.0,286046999.0,N
1674109275.8,286046998.2,N
1674109295.7,286046998.2,N
1674109315.5,286047001.1,N
1674109335.4,286047000.7,N
1674109355.2,286046999.9,N
1674109375.0,286047001.3,N
1674109375.9,286047001.3,N
1674109395.8,286047002.9,N
1674109415.6,286047004.3,N
1674109435.4,286047001.9,N
1674109455.3,286047004.2,N
1674109475.1,286046998.6,N
1674109495.9,286046998.7,N
1674109515.7,286047001.1,N
1674109535.5,286047000.5,N
1674109555.4,286046998.7,N
1674109575.2,286047000.6,N
1674109595.1,286047002.4,N
1674109596.0,286047002.4,N
1674109615.8,286047001.9,N
1674109635.6,286047000.2,N
1674109655.5,286046999.6,N
1674109675.3,286046999.1,N
1674109695.2,286046998.6,N
1674109715.9,286047003.9,N
1674109735.7,286047004.1,N
1674109755.6,286047001.3,N
1674109775.4,286047000.5,N
1674109795.2,286047000.8,N
1674109815.1,286046998.4,N
1674109816.0,286046998.4,N
1674109835.8,286046999.9,N
1674109855.7,286047001.8,N
1674109875.5,286047001.9,N
1674109895.3,286047002.5,N
1674109915.2,286047000.7,N
1674109935.0,286047000.2,N
1674109935.9,286047000.2,N
1674109955.7,286047001.6,N
1674109975.6,286047000.8,N
1674109995.4,286047002.7,N
1674110015.3,286047003.9,N
1674110035.1,286047001.6,N
1674110036.0,286047001.6,N
1674110055.8,286047001.5,N
1674110075.7,286047004.4,N
1674110095.5,286047000.3,N
1674110115.3,286047001.8,N
1674110135.2,286047002.2,N
1674110155.0,286047004.4,N
1674110155.9,286047004.4,N
1674110175.8,286047001.4,N
1674110195.6,286047003.1,N
1674110215.4,286047005.6,Y
1674110235.3,286047002.5,P
1674110255.1,286046999.0,N
1674110275.9,286047001.2,N
1674110295.7,286046999.3,N
1674110315.5,286046999.6,N
1674110335.4,286046997.7,N
1674110355.2,286046996.9,N
1674110375.0,286046999.5,N
1674110375.9,286046999.5,N
1674110395.8,286047002.1,N
1674110415.6,286047001.7,N
1674110435.5,286047004.4,N
1674110455.3,286047001.4,N
1674110475.1,286047002.5,N
1674110495.9,286047002.7,N
1674110515.7,286047003.7,N
1674110535.6,286047005.5,N
1674110555.4,286047006.7,N
1674110575.2,286047003.4,N
1674110595.1,286047001.5,N
1674110596.0,286047001.5,N
1674110615.8,286046998.7,N
1674110635.6,286046997.0,N
1674110655.5,286046998.6,N
1674110675.3,286046997.9,N
1674110695.2,286046996.7,N
1674110715.9,286046995.3,N
1674110735.7,286046997.3,N
1674110755.6,286046997.4,N
1674110775.4,286047001.1,N
1674110795.2,286047002.2,N
1674110815.1,286047003.0,N
1674110816.0,286047003.0,N
1674110835.8,286047006.0,N
1674110855.7,286047001.7,N
1674110875.5,286047002.1,N
1674110895.3,286047003.8,N
1674110915.2,286047004.4,N
1674110935.0,286047001.7,N
1674110935.9,286047001.7,N
1674110955.8,286046998.2,N
1674110975.6,286046998.2,N
1674110995.4,286047002.4,N
1674111015.3,286046999.8,N
1674111035.1,286047000.6,N
1674111055.8,286047001.7,N
1674111075.7,286047003.5,N
1674111095.5,286047001.8,N
1674111115.4,286047002.9,N
1674111135.2,286047001.9,N
1674111155.0,286047002.2,N
1674111155.9,286047002.2,N
1674111175.8,286047004.8,N
1674111195.6,286047007.3,N
1674111215.5,286047003.8,N
1674111235.3,286047001.4,N
1674111255.1,286047001.3,N
1674111275.9,286047002.6,N
1674111295.7,286047003.7,N
1674111315.5,286047000.3,N
1674111335.4,286046999.3,N
1674111355.2,286046998.4,N
1674111375.1,286046998.2,N
1674111376.0,286046998.2,N
1674111395.8,286047002.7,N
1674111415.6,286047000.9,N
1674111435.5,286047002.7,N
1674111455.3,286047002.3,N
1674111475.1,286047001.6,N
1674111495.9,286046998.2,N
1674111515.7,286047001.1,N
1674111535.6,286047002.0,N
1674111555.4,286047001.5,N
1674111575.2,286047001.0,N
1674111595.1,286046999.0,N
1674111596.0,286046999.0,N
